Weather in Stetskivka

Ukraine / Sumi District     51°00′40″N   34°46′42″E
temp.,
°C
wind,
m/s
gust,
m/s
humid.,
%
clouds,
%
prec.,
mm/h
press.,
hPa
HPBL,
m
27 october, wed
wed2700:00+2ssw412606 0.0 1028255
03:00+1ssw4116220 0.0 1028237
06:00+1ssw413635 0.0 1026288
09:00+3ssw513610 0.0 1025392
12:00+8sw710630 0.0 1024763
15:00+10wsw686147 0.0 10231096
18:00+6wsw377898 0.0 1023137
21:00+6wsw377652 0.0 1023152
28 october, thu
thu2800:00+5w358123 0.0 102485
03:00+4wsw3589100 0.0 1023109
06:00+4sw3991100 0.0 1022195
09:00+6sw51189100 0.9 1021355
12:00+8wsw51179100 0.2 1020542
15:00+8wnw51086100 0.4 1020537
18:00+8wnw4990100 0.1 1021372
21:00+8nw3992100 0.1 1022369
29 october, fri
fri2900:00+6wnw369685 0.0 1023119
03:00+6n36955 0.0 1025127
06:00+4n35905 0.0 102789
09:00+5nne25832 0.0 1028144
12:00+10ene23674 0.0 1029576
15:00+11e22590 0.0 1029900
18:00+8ene11740 0.0 103010
21:00+6ese22810 0.0 103127
30 october, sat
sat3000:00+5sse23910 0.0 103256
03:00+4sse23920 0.0 103239
06:00+4sse22930 0.0 103231
09:00+5sse24865 0.0 1034109
12:00+10sse34643 0.0 1034436
15:00+12sse33540 0.0 1033652
18:00+8se22651 0.0 103321
21:00+6sse23644 0.0 103334
31 october, sun
sun3100:00+5sse22704 0.0 103423
03:00+4sse22760 0.0 103421
05:00+3se22830 0.0 103320
08:00+5se26780 0.0 1033151
11:00+10sse46550 0.0 1032476
14:00+12se35500 0.0 1030676
17:00+8ese35670 0.0 103085
20:00+7se39760 0.0 1029153